| time (UTC) | temp C | wind direction | speed KPH | gust KPH | rain 1hr cm | rain 24hr cm | rain mn cm | humidity % | barometer mb |
| 20260508222423 | 16 | 358 | 0.0 | 0.0 | 0.00 | 0.00 | 0.00 | 83 | 1033.5 |
| 20260508221919 | 16 | 358 | 0.0 | 0.0 | 0.00 | 0.00 | 0.00 | 84 | 1033.6 |
| 20260508221414 | 16 | 358 | 0.0 | 0.0 | 0.00 | 0.00 | 0.00 | 85 | 1033.5 |
| 20260508220912 | 16 | 357 | 0.0 | 0.0 | 0.00 | 0.00 | 0.00 | 86 | 1033.5 |
| 20260508220408 | 16 | 358 | 0.0 | 0.0 | 0.00 | 0.00 | 0.00 | 86 | 1033.6 |
| 20260508215904 | 16 | 358 | 0.0 | 0.0 | 0.00 | 0.00 | 0.00 | 86 | 1033.4 |
| 20260508215402 | 17 | 358 | 0.0 | 0.0 | 0.00 | 0.00 | 0.00 | 85 | 1033.4 |
| 20260508214858 | 17 | 358 | 0.0 | 0.0 | 0.00 | 0.00 | 0.00 | 84 | 1033.4 |
| 20260508214356 | 17 | 358 | 0.0 | 0.0 | 0.00 | 0.00 | 0.00 | 84 | 1033.3 |
| 20260508213852 | 17 | 357 | 0.0 | 0.0 | 0.00 | 0.00 | 0.00 | 83 | 1033.3 |
| 20260508213349 | 17 | 358 | 0.0 | 0.0 | 0.00 | 0.00 | 0.00 | 83 | 1033.5 |
| 20260508212845 | 17 | 358 | 0.0 | 0.0 | 0.00 | 0.00 | 0.00 | 84 | 1033.7 |
| 20260508212341 | 17 | 358 | 0.0 | 0.0 | 0.00 | 0.00 | 0.00 | 84 | 1033.5 |
| 20260508211837 | 17 | 1 | 0.0 | 0.0 | 0.00 | 0.00 | 0.00 | 83 | 1033.7 |
| 20260508211333 | 17 | 1 | 0.0 | 0.0 | 0.00 | 0.00 | 0.00 | 81 | 1033.7 |
| 20260508210830 | 17 | 0 | 0.0 | 0.0 | 0.00 | 0.00 | 0.00 | 81 | 1033.6 |
| 20260508210327 | 17 | 5 | 0.0 | 0.0 | 0.00 | 0.00 | 0.00 | 84 | 1033.9 |
| 20260508205818 | 17 | 6 | 0.0 | 0.0 | 0.00 | 0.00 | 0.00 | 83 | 1033.9 |
| 20260508205314 | 17 | 6 | 0.0 | 0.0 | 0.00 | 0.00 | 0.00 | 82 | 1033.9 |
| 20260508204811 | 17 | 6 | 0.0 | 0.0 | 0.00 | 0.00 | 0.00 | 81 | 1033.8 |
| 20260508204307 | 17 | 6 | 0.0 | 0.0 | 0.00 | 0.00 | 0.00 | 81 | 1034.1 |
| 20260508203803 | 17 | 6 | 0.0 | 0.0 | 0.00 | 0.00 | 0.00 | 80 | 1033.8 |
| 20260508203300 | 17 | 6 | 0.0 | 0.0 | 0.00 | 0.00 | 0.00 | 81 | 1033.6 |
| 20260508202755 | 17 | 6 | 0.0 | 0.0 | 0.00 | 0.00 | 0.00 | 81 | 1033.8 |
| 20260508202253 | 17 | 6 | 0.0 | 0.0 | 0.00 | 0.00 | 0.00 | 79 | 1034.0 |
| 20260508201750 | 17 | 6 | 0.0 | 0.0 | 0.00 | 0.00 | 0.00 | 81 | 1033.9 |
| 20260508201247 | 17 | 6 | 0.0 | 0.0 | 0.00 | 0.00 | 0.00 | 81 | 1033.9 |
| 20260508200743 | 17 | 7 | 0.0 | 0.0 | 0.00 | 0.00 | 0.00 | 82 | 1033.9 |
| 20260508200240 | 17 | 6 | 0.0 | 0.0 | 0.00 | 0.00 | 0.00 | 82 | 1034.0 |
| 20260508195736 | 17 | 7 | 0.0 | 0.0 | 0.00 | 0.00 | 0.00 | 79 | 1033.9 |
| 20260508195232 | 17 | 6 | 0.0 | 0.0 | 0.00 | 0.00 | 0.00 | 78 | 1034.2 |
| 20260508194729 | 17 | 6 | 0.0 | 0.0 | 0.00 | 0.00 | 0.00 | 78 | 1034.1 |
| 20260508194226 | 17 | 6 | 0.0 | 0.0 | 0.00 | 0.00 | 0.00 | 78 | 1034.1 |
| 20260508193723 | 17 | 7 | 0.0 | 0.0 | 0.00 | 0.00 | 0.00 | 80 | 1034.2 |
| 20260508193220 | 17 | 7 | 0.0 | 0.0 | 0.00 | 0.00 | 0.00 | 79 | 1034.4 |
| 20260508192716 | 17 | 7 | 0.0 | 0.0 | 0.00 | 0.00 | 0.00 | 78 | 1034.3 |
| 20260508192213 | 17 | 6 | 0.0 | 0.0 | 0.00 | 0.00 | 0.00 | 77 | 1034.3 |
| 20260508191711 | 17 | 6 | 0.0 | 1.6 | 0.00 | 0.00 | 0.00 | 75 | 1034.3 |
| 20260508191202 | 17 | 30 | 0.0 | 0.0 | 0.00 | 0.00 | 0.00 | 75 | 1034.4 |
| 20260508190700 | 17 | 192 | 1.6 | 1.6 | 0.00 | 0.00 | 0.00 | 75 | 1034.2 |
| 20260508190155 | 17 | 19 | 0.0 | 0.0 | 0.00 | 0.00 | 0.00 | 83 | 1033.8 |
| 20260508185652 | 17 | 10 | 0.0 | 0.0 | 0.00 | 0.00 | 0.00 | 81 | 1033.8 |
| 20260508185150 | 17 | 316 | 0.0 | 0.0 | 0.00 | 0.00 | 0.00 | 74 | 1034.4 |
| 20260508184647 | 17 | 26 | 0.0 | 0.0 | 0.00 | 0.00 | 0.00 | 81 | 1034.3 |
| 20260508184144 | 17 | 8 | 0.0 | 0.0 | 0.00 | 0.00 | 0.00 | 78 | 1034.3 |
| 20260508183641 | 17 | 356 | 0.0 | 0.0 | 0.00 | 0.00 | 0.00 | 80 | 1034.7 |
| 20260508183136 | 17 | 353 | 0.0 | 0.0 | 0.00 | 0.00 | 0.00 | 77 | 1034.5 |
| 20260508182633 | 17 | 14 | 0.0 | 0.0 | 0.00 | 0.00 | 0.00 | 78 | 1034.7 |
| 20260508182129 | 17 | 13 | 0.0 | 0.0 | 0.00 | 0.00 | 0.00 | 77 | 1035.2 |
| 20260508181625 | 18 | 2 | 0.0 | 0.0 | 0.00 | 0.00 | 0.00 | 80 | 1034.8 |
| 20260508181122 | 17 | 1 | 0.0 | 0.0 | 0.00 | 0.00 | 0.00 | 76 | 1035.1 |
| 20260508180619 | 18 | 7 | 0.0 | 0.0 | 0.00 | 0.00 | 0.00 | 74 | 1035.5 |
| 20260508180116 | 18 | 2 | 0.0 | 0.0 | 0.00 | 0.00 | 0.00 | 76 | 1035.3 |
| 20260508175613 | 18 | 3 | 0.0 | 0.0 | 0.00 | 0.00 | 0.00 | 76 | 1035.4 |
| 20260508175109 | 18 | 348 | 0.0 | 0.0 | 0.00 | 0.00 | 0.00 | 74 | 1035.4 |
| 20260508174607 | 18 | 22 | 0.0 | 0.0 | 0.00 | 0.00 | 0.00 | 74 | 1035.6 |
| 20260508174104 | 17 | 26 | 0.0 | 0.0 | 0.00 | 0.00 | 0.00 | 73 | 1036.0 |
| 20260508173601 | 18 | 14 | 0.0 | 0.0 | 0.00 | 0.00 | 0.00 | 78 | 1035.6 |
| 20260508173057 | 18 | 23 | 0.0 | 0.0 | 0.00 | 0.00 | 0.00 | 73 | 1035.7 |
| 20260508172554 | 18 | 8 | 0.0 | 0.0 | 0.00 | 0.00 | 0.00 | 75 | 1035.4 |
| 20260508172050 | 17 | 187 | 0.0 | 0.0 | 0.00 | 0.00 | 0.00 | 73 | 1035.5 |
| 20260508171547 | 17 | 25 | 0.0 | 0.0 | 0.00 | 0.00 | 0.00 | 75 | 1035.7 |
| 20260508171044 | 18 | 25 | 0.0 | 0.0 | 0.00 | 0.00 | 0.00 | 74 | 1036.0 |
| 20260508170541 | 18 | 20 | 0.0 | 0.0 | 0.00 | 0.00 | 0.00 | 76 | 1035.9 |
| 20260508170038 | 18 | 17 | 0.0 | 0.0 | 0.00 | 0.00 | 0.00 | 77 | 1036.1 |
| 20260508165535 | 18 | 21 | 0.0 | 0.0 | 0.00 | 0.00 | 0.00 | 73 | 1036.1 |
| 20260508165032 | 18 | 9 | 0.0 | 0.0 | 0.00 | 0.00 | 0.00 | 72 | 1036.3 |
| 20260508164528 | 18 | 352 | 0.0 | 0.0 | 0.00 | 0.00 | 0.00 | 73 | 1036.3 |
| 20260508164025 | 18 | 341 | 0.0 | 0.0 | 0.00 | 0.00 | 0.00 | 71 | 1036.5 |
| 20260508163523 | 18 | 346 | 0.0 | 0.0 | 0.00 | 0.00 | 0.00 | 73 | 1036.5 |
| 20260508163019 | 18 | 16 | 0.0 | 0.0 | 0.00 | 0.00 | 0.00 | 71 | 1036.5 |
| 20260508162516 | 18 | 22 | 0.0 | 0.0 | 0.00 | 0.00 | 0.00 | 69 | 1036.4 |
| 20260508162013 | 18 | 347 | 1.6 | 1.6 | 0.00 | 0.00 | 0.00 | 69 | 1036.5 |
| 20260508161510 | 18 | 12 | 0.0 | 0.0 | 0.00 | 0.00 | 0.00 | 74 | 1036.3 |
| 20260508161008 | 18 | 18 | 0.0 | 0.0 | 0.00 | 0.00 | 0.00 | 73 | 1036.6 |
| 20260508160506 | 18 | 31 | 0.0 | 0.0 | 0.00 | 0.00 | 0.00 | 70 | 1036.8 |
| 20260508160003 | 18 | 344 | 0.0 | 0.0 | 0.00 | 0.00 | 0.00 | 74 | 1036.7 |
| 20260508155500 | 18 | 346 | 1.6 | 1.6 | 0.00 | 0.00 | 0.00 | 76 | 1036.7 |
| 20260508154956 | 18 | 8 | 0.0 | 0.0 | 0.00 | 0.00 | 0.00 | 77 | 1036.9 |
| 20260508154454 | 17 | 14 | 0.0 | 0.0 | 0.00 | 0.00 | 0.00 | 76 | 1037.3 |
| 20260508153950 | 18 | 347 | 1.6 | 1.6 | 0.00 | 0.00 | 0.00 | 76 | 1037.2 |
| 20260508153447 | 18 | 357 | 0.0 | 0.0 | 0.00 | 0.00 | 0.00 | 78 | 1036.9 |
| 20260508152943 | 17 | 17 | 0.0 | 0.0 | 0.00 | 0.00 | 0.00 | 75 | 1037.1 |
| 20260508152440 | 17 | 24 | 0.0 | 0.0 | 0.00 | 0.00 | 0.00 | 79 | 1036.9 |
| 20260508151936 | 17 | 22 | 0.0 | 0.0 | 0.00 | 0.00 | 0.00 | 79 | 1036.9 |
| 20260508151433 | 17 | 13 | 0.0 | 0.0 | 0.00 | 0.00 | 0.00 | 77 | 1036.8 |
| 20260508150930 | 17 | 2 | 0.0 | 0.0 | 0.00 | 0.00 | 0.00 | 80 | 1036.7 |
| 20260508150426 | 17 | 15 | 0.0 | 0.0 | 0.00 | 0.00 | 0.00 | 79 | 1037.0 |
| 20260508145922 | 17 | 11 | 0.0 | 0.0 | 0.00 | 0.00 | 0.00 | 82 | 1037.1 |
| 20260508145419 | 17 | 11 | 0.0 | 0.0 | 0.00 | 0.00 | 0.00 | 81 | 1036.9 |
| 20260508144916 | 17 | 34 | 0.0 | 0.0 | 0.00 | 0.00 | 0.00 | 81 | 1037.0 |
| 20260508144414 | 17 | 14 | 0.0 | 0.0 | 0.00 | 0.00 | 0.00 | 80 | 1037.0 |
| 20260508143911 | 17 | 29 | 0.0 | 0.0 | 0.00 | 0.00 | 0.00 | 80 | 1037.1 |
| 20260508143408 | 17 | 164 | 1.6 | 1.6 | 0.00 | 0.00 | 0.00 | 78 | 1037.0 |
| 20260508142904 | 17 | 105 | 0.0 | 0.0 | 0.00 | 0.00 | 0.00 | 80 | 1037.3 |
| 20260508142402 | 16 | 174 | 1.6 | 3.2 | 0.00 | 0.00 | 0.00 | 81 | 1037.0 |
| 20260508141857 | 16 | 14 | 0.0 | 0.0 | 0.00 | 0.00 | 0.00 | 79 | 1037.3 |
| 20260508141355 | 16 | 168 | 1.6 | 3.2 | 0.00 | 0.00 | 0.00 | 80 | 1037.1 |
| 20260508140852 | 16 | 26 | 0.0 | 0.0 | 0.00 | 0.00 | 0.00 | 84 | 1037.2 |
| 20260508140350 | 16 | 174 | 1.6 | 1.6 | 0.00 | 0.00 | 0.00 | 85 | 1037.4 |
| 20260508135845 | 16 | 358 | 0.0 | 0.0 | 0.00 | 0.00 | 0.00 | 87 | 1037.3 |
| 20260508135342 | 15 | 199 | 0.0 | 0.0 | 0.00 | 0.00 | 0.00 | 86 | 1037.9 |
| 20260508134838 | 15 | 176 | 0.0 | 0.0 | 0.00 | 0.00 | 0.00 | 86 | 1037.8 |
| 20260508134334 | 15 | 175 | 0.0 | 0.0 | 0.00 | 0.00 | 0.00 | 87 | 1037.5 |
| 20260508133831 | 15 | 179 | 0.0 | 0.0 | 0.00 | 0.00 | 0.00 | 87 | 1037.5 |
| 20260508133329 | 15 | 136 | 0.0 | 0.0 | 0.00 | 0.00 | 0.00 | 87 | 1037.7 |
| 20260508132826 | 15 | 43 | 0.0 | 0.0 | 0.00 | 0.00 | 0.00 | 86 | 1037.7 |
| 20260508132324 | 14 | 42 | 0.0 | 0.0 | 0.00 | 0.00 | 0.00 | 89 | 1037.6 |
| 20260508131820 | 14 | 42 | 0.0 | 0.0 | 0.00 | 0.00 | 0.00 | 89 | 1037.5 |
| 20260508131316 | 14 | 43 | 0.0 | 0.0 | 0.00 | 0.00 | 0.00 | 90 | 1037.6 |
| 20260508130813 | 13 | 44 | 0.0 | 0.0 | 0.00 | 0.00 | 0.00 | 92 | 1037.5 |
| 20260508130310 | 13 | 58 | 0.0 | 0.0 | 0.00 | 0.00 | 0.00 | 91 | 1037.6 |
| 20260508125806 | 13 | 71 | 0.0 | 0.0 | 0.00 | 0.00 | 0.00 | 91 | 1037.1 |
| 20260508125305 | 13 | 53 | 0.0 | 0.0 | 0.00 | 0.00 | 0.00 | 92 | 1037.4 |
| 20260508124800 | 13 | 53 | 0.0 | 0.0 | 0.00 | 0.00 | 0.00 | 92 | 1037.0 |
| 20260508124257 | 13 | 55 | 0.0 | 0.0 | 0.00 | 0.00 | 0.00 | 92 | 1037.1 |
| 20260508123755 | 13 | 23 | 0.0 | 0.0 | 0.00 | 0.00 | 0.00 | 93 | 1037.1 |
| 20260508123252 | 12 | 65 | 0.0 | 0.0 | 0.00 | 0.00 | 0.00 | 94 | 1037.2 |
| 20260508122743 | 12 | 40 | 0.0 | 0.0 | 0.00 | 0.00 | 0.00 | 95 | 1037.2 |
| 20260508122240 | 12 | 22 | 0.0 | 0.0 | 0.00 | 0.00 | 0.00 | 95 | 1036.9 |
| 20260508121737 | 12 | 37 | 0.0 | 0.0 | 0.00 | 0.00 | 0.00 | 96 | 1036.8 |
| 20260508121236 | 12 | 47 | 0.0 | 0.0 | 0.00 | 0.00 | 0.00 | 96 | 1036.6 |
| 20260508120733 | 12 | 112 | 0.0 | 0.0 | 0.00 | 0.00 | 0.00 | 97 | 1036.7 |
| 20260508120231 | 12 | 72 | 0.0 | 0.0 | 0.00 | 0.00 | 0.00 | 97 | 1036.6 |
| 20260508115728 | 12 | 89 | 0.0 | 0.0 | 0.00 | 0.00 | 0.00 | 97 | 1036.9 |
| 20260508115226 | 12 | 73 | 0.0 | 0.0 | 0.00 | 0.00 | 0.00 | 97 | 1036.7 |
| 20260508114722 | 12 | 11 | 0.0 | 0.0 | 0.00 | 0.00 | 0.00 | 98 | 1036.4 |
| 20260508114219 | 12 | 299 | 0.0 | 0.0 | 0.00 | 0.00 | 0.00 | 98 | 1036.3 |
| 20260508113715 | 12 | 330 | 0.0 | 0.0 | 0.00 | 0.00 | 0.00 | 98 | 1036.4 |
| 20260508113214 | 12 | 352 | 0.0 | 0.0 | 0.00 | 0.00 | 0.00 | 98 | 1036.3 |
| 20260508112709 | 12 | 351 | 0.0 | 0.0 | 0.00 | 0.00 | 0.00 | 98 | 1036.4 |
| 20260508112207 | 12 | 4 | 0.0 | 0.0 | 0.00 | 0.00 | 0.00 | 98 | 1036.4 |
| 20260508111703 | 12 | 5 | 0.0 | 0.0 | 0.00 | 0.00 | 0.00 | 98 | 1036.1 |
| 20260508111200 | 12 | 5 | 0.0 | 0.0 | 0.00 | 0.00 | 0.00 | 98 | 1036.1 |
| 20260508110657 | 12 | 5 | 0.0 | 0.0 | 0.00 | 0.00 | 0.00 | 98 | 1036.0 |
| 20260508110154 | 12 | 5 | 0.0 | 0.0 | 0.00 | 0.00 | 0.00 | 98 | 1035.6 |
| 20260508105649 | 12 | 5 | 0.0 | 0.0 | 0.00 | 0.00 | 0.00 | 98 | 1035.7 |
| 20260508105146 | 12 | 5 | 0.0 | 0.0 | 0.00 | 0.00 | 0.00 | 98 | 1035.8 |
| 20260508104644 | 12 | 5 | 0.0 | 0.0 | 0.00 | 0.00 | 0.00 | 98 | 1035.9 |
| 20260508104140 | 12 | 5 | 0.0 | 0.0 | 0.00 | 0.00 | 0.00 | 98 | 1035.9 |
| 20260508103637 | 12 | 5 | 0.0 | 0.0 | 0.00 | 0.00 | 0.00 | 98 | 1035.6 |
| 20260508103135 | 12 | 5 | 0.0 | 0.0 | 0.00 | 0.00 | 0.00 | 98 | 1035.7 |
| 20260508102632 | 12 | 5 | 0.0 | 0.0 | 0.00 | 0.00 | 0.00 | 98 | 1035.7 |
| 20260508102130 | 12 | 4 | 0.0 | 0.0 | 0.00 | 0.00 | 0.00 | 98 | 1035.6 |
| 20260508101621 | 12 | 4 | 0.0 | 0.0 | 0.00 | 0.00 | 0.00 | 98 | 1035.8 |
| 20260508101118 | 12 | 4 | 0.0 | 0.0 | 0.00 | 0.00 | 0.00 | 98 | 1035.5 |
| 20260508100616 | 12 | 4 | 0.0 | 0.0 | 0.00 | 0.00 | 0.00 | 98 | 1035.6 |
| 20260508100114 | 12 | 4 | 0.0 | 0.0 | 0.00 | 0.00 | 0.00 | 98 | 1035.7 |
| 20260508095610 | 12 | 4 | 0.0 | 0.0 | 0.00 | 0.00 | 0.00 | 98 | 1035.5 |
| 20260508095107 | 12 | 4 | 0.0 | 0.0 | 0.00 | 0.00 | 0.00 | 98 | 1035.0 |
| 20260508094604 | 12 | 4 | 0.0 | 0.0 | 0.00 | 0.00 | 0.00 | 98 | 1035.3 |
| 20260508094100 | 12 | 4 | 0.0 | 0.0 | 0.00 | 0.00 | 0.00 | 98 | 1034.8 |
| 20260508093558 | 12 | 4 | 0.0 | 0.0 | 0.00 | 0.00 | 0.00 | 98 | 1035.0 |
| 20260508093056 | 12 | 4 | 0.0 | 0.0 | 0.00 | 0.00 | 0.00 | 98 | 1034.6 |
| 20260508092552 | 12 | 4 | 0.0 | 0.0 | 0.00 | 0.00 | 0.00 | 98 | 1034.6 |
| 20260508092052 | 12 | 4 | 0.0 | 0.0 | 0.00 | 0.00 | 0.00 | 99 | 1034.4 |
| 20260508091548 | 12 | 3 | 0.0 | 0.0 | 0.00 | 0.00 | 0.00 | 99 | 1034.2 |
| 20260508091045 | 12 | 3 | 0.0 | 0.0 | 0.00 | 0.00 | 0.00 | 99 | 1034.1 |
| 20260508090543 | 12 | 3 | 0.0 | 0.0 | 0.00 | 0.00 | 0.00 | 99 | 1034.3 |
| 20260508090039 | 12 | 3 | 0.0 | 0.0 | 0.00 | 0.00 | 0.00 | 99 | 1034.2 |
| 20260508085536 | 12 | 3 | 0.0 | 0.0 | 0.00 | 0.00 | 0.00 | 99 | 1034.3 |
| 20260508085033 | 12 | 3 | 0.0 | 0.0 | 0.00 | 0.00 | 0.00 | 99 | 1034.2 |
| 20260508084530 | 12 | 3 | 0.0 | 0.0 | 0.00 | 0.00 | 0.00 | 99 | 1034.1 |
| 20260508084027 | 12 | 3 | 0.0 | 0.0 | 0.00 | 0.00 | 0.00 | 99 | 1034.1 |
| 20260508083524 | 12 | 3 | 0.0 | 0.0 | 0.00 | 0.00 | 0.00 | 99 | 1033.9 |
| 20260508083021 | 12 | 3 | 0.0 | 0.0 | 0.00 | 0.00 | 0.00 | 99 | 1033.9 |
| 20260508082517 | 12 | 3 | 0.0 | 0.0 | 0.00 | 0.00 | 0.00 | 99 | 1034.2 |
| 20260508082014 | 12 | 1 | 0.0 | 0.0 | 0.00 | 0.00 | 0.00 | 99 | 1034.2 |
| 20260508081512 | 12 | 1 | 0.0 | 0.0 | 0.00 | 0.00 | 0.00 | 98 | 1033.9 |
| 20260508081007 | 12 | 1 | 0.0 | 0.0 | 0.00 | 0.00 | 0.00 | 98 | 1034.1 |
| 20260508080506 | 12 | 1 | 0.0 | 0.0 | 0.00 | 0.00 | 0.00 | 98 | 1033.7 |
| 20260508080002 | 12 | 1 | 0.0 | 0.0 | 0.00 | 0.00 | 0.00 | 98 | 1034.2 |
| 20260508075459 | 12 | 1 | 0.0 | 0.0 | 0.00 | 0.00 | 0.00 | 98 | 1034.1 |
| 20260508074957 | 12 | 1 | 0.0 | 0.0 | 0.00 | 0.00 | 0.00 | 98 | 1034.2 |
| 20260508074455 | 13 | 1 | 0.0 | 0.0 | 0.00 | 0.00 | 0.00 | 98 | 1034.2 |
| 20260508073951 | 13 | 1 | 0.0 | 0.0 | 0.00 | 0.00 | 0.00 | 98 | 1034.4 |
| 20260508073448 | 13 | 1 | 0.0 | 0.0 | 0.00 | 0.00 | 0.00 | 98 | 1034.4 |
| 20260508072945 | 13 | 1 | 0.0 | 0.0 | 0.00 | 0.00 | 0.00 | 98 | 1034.5 |
| 20260508072442 | 13 | 1 | 0.0 | 0.0 | 0.00 | 0.00 | 0.00 | 97 | 1034.4 |
| 20260508071939 | 13 | 1 | 0.0 | 0.0 | 0.00 | 0.00 | 0.00 | 97 | 1034.7 |
| 20260508071437 | 13 | 1 | 0.0 | 0.0 | 0.00 | 0.00 | 0.00 | 97 | 1034.8 |
| 20260508070934 | 13 | 1 | 0.0 | 0.0 | 0.00 | 0.00 | 0.00 | 97 | 1034.7 |
| 20260508070432 | 13 | 1 | 0.0 | 0.0 | 0.00 | 0.00 | 0.00 | 96 | 1034.6 |
| 20260508065930 | 13 | 1 | 0.0 | 0.0 | 0.00 | 0.00 | 0.00 | 96 | 1034.6 |
| 20260508065428 | 13 | 1 | 0.0 | 0.0 | 0.00 | 0.00 | 0.00 | 96 | 1034.8 |
| 20260508064925 | 13 | 1 | 0.0 | 0.0 | 0.00 | 0.00 | 0.00 | 96 | 1034.6 |
| 20260508064422 | 13 | 1 | 0.0 | 0.0 | 0.00 | 0.00 | 0.00 | 96 | 1034.6 |
| 20260508063920 | 13 | 1 | 0.0 | 0.0 | 0.00 | 0.00 | 0.00 | 96 | 1034.3 |
| 20260508063418 | 13 | 1 | 0.0 | 0.0 | 0.00 | 0.00 | 0.00 | 96 | 1035.0 |
| 20260508062915 | 13 | 1 | 0.0 | 0.0 | 0.00 | 0.00 | 0.00 | 96 | 1034.8 |
| 20260508062413 | 13 | 1 | 0.0 | 0.0 | 0.00 | 0.00 | 0.00 | 96 | 1034.6 |
| 20260508061909 | 13 | 1 | 0.0 | 0.0 | 0.00 | 0.00 | 0.00 | 96 | 1034.7 |
| 20260508061407 | 13 | 1 | 0.0 | 0.0 | 0.00 | 0.00 | 0.00 | 96 | 1034.8 |
| 20260508060903 | 13 | 1 | 0.0 | 0.0 | 0.00 | 0.00 | 0.00 | 96 | 1034.8 |
| 20260508060401 | 13 | 1 | 0.0 | 0.0 | 0.00 | 0.00 | 0.00 | 96 | 1035.0 |
| 20260508055901 | 13 | 1 | 0.0 | 0.0 | 0.00 | 0.00 | 0.00 | 95 | 1034.6 |
| 20260508055359 | 13 | 1 | 0.0 | 0.0 | 0.00 | 0.00 | 0.00 | 95 | 1035.0 |
| 20260508054855 | 13 | 1 | 0.0 | 0.0 | 0.00 | 0.00 | 0.00 | 95 | 1034.8 |
| 20260508054352 | 13 | 1 | 0.0 | 0.0 | 0.00 | 0.00 | 0.00 | 95 | 1035.1 |
| 20260508053849 | 13 | 1 | 0.0 | 0.0 | 0.00 | 0.00 | 0.00 | 94 | 1035.1 |
| 20260508053347 | 13 | 1 | 0.0 | 0.0 | 0.00 | 0.00 | 0.00 | 93 | 1035.3 |
| 20260508052844 | 13 | 1 | 0.0 | 0.0 | 0.00 | 0.00 | 0.00 | 93 | 1035.5 |
| 20260508052342 | 13 | 1 | 0.0 | 0.0 | 0.00 | 0.00 | 0.00 | 93 | 1035.6 |
| 20260508051837 | 14 | 1 | 0.0 | 0.0 | 0.00 | 0.00 | 0.00 | 94 | 1035.4 |
| 20260508051332 | 14 | 1 | 0.0 | 0.0 | 0.00 | 0.00 | 0.00 | 94 | 1035.3 |
| 20260508050829 | 14 | 1 | 0.0 | 0.0 | 0.00 | 0.00 | 0.00 | 94 | 1035.2 |
| 20260508050327 | 14 | 1 | 0.0 | 0.0 | 0.00 | 0.00 | 0.00 | 93 | 1035.3 |
| 20260508045822 | 14 | 1 | 0.0 | 0.0 | 0.00 | 0.94 | 0.94 | 93 | 1035.3 |
| 20260508045320 | 14 | 1 | 0.0 | 0.0 | 0.00 | 0.94 | 0.94 | 93 | 1035.2 |
| 20260508044818 | 14 | 1 | 0.0 | 0.0 | 0.00 | 0.94 | 0.94 | 93 | 1035.3 |
| 20260508044314 | 14 | 1 | 0.0 | 0.0 | 0.00 | 0.94 | 0.94 | 93 | 1035.6 |
| 20260508043810 | 14 | 1 | 0.0 | 0.0 | 0.00 | 0.94 | 0.94 | 93 | 1035.4 |
| 20260508043308 | 14 | 1 | 0.0 | 0.0 | 0.00 | 0.94 | 0.94 | 92 | 1035.5 |
| 20260508042804 | 14 | 1 | 0.0 | 0.0 | 0.00 | 0.94 | 0.94 | 92 | 1035.6 |
| 20260508042306 | 14 | 1 | 0.0 | 0.0 | 0.00 | 0.94 | 0.94 | 92 | 1035.3 |
| 20260508041758 | 15 | 1 | 0.0 | 0.0 | 0.00 | 0.94 | 0.94 | 92 | 1035.7 |
| 20260508041255 | 15 | 1 | 0.0 | 0.0 | 0.00 | 0.94 | 0.94 | 91 | 1035.5 |
| 20260508040751 | 15 | 1 | 0.0 | 0.0 | 0.00 | 0.94 | 0.94 | 91 | 1035.1 |
| 20260508040248 | 15 | 1 | 0.0 | 0.0 | 0.00 | 0.94 | 0.94 | 91 | 1035.3 |
| 20260508035746 | 15 | 1 | 0.0 | 0.0 | 0.00 | 0.94 | 0.94 | 91 | 1035.1 |
| 20260508035243 | 14 | 1 | 0.0 | 0.0 | 0.00 | 0.94 | 0.94 | 91 | 1035.4 |
| 20260508034739 | 14 | 1 | 0.0 | 0.0 | 0.00 | 0.94 | 0.94 | 91 | 1035.4 |
| 20260508034237 | 15 | 1 | 0.0 | 0.0 | 0.00 | 0.94 | 0.94 | 91 | 1035.5 |
| 20260508033734 | 15 | 1 | 0.0 | 0.0 | 0.00 | 0.94 | 0.94 | 91 | 1035.4 |
| 20260508033232 | 15 | 1 | 0.0 | 0.0 | 0.00 | 0.94 | 0.94 | 90 | 1035.4 |
| 20260508032729 | 15 | 1 | 0.0 | 0.0 | 0.00 | 0.94 | 0.94 | 88 | 1035.5 |
| 20260508032226 | 15 | 1 | 0.0 | 0.0 | 0.00 | 0.94 | 0.94 | 88 | 1035.1 |
| 20260508031723 | 15 | 1 | 0.0 | 0.0 | 0.00 | 0.94 | 0.94 | 88 | 1035.2 |
| 20260508031219 | 15 | 1 | 0.0 | 0.0 | 0.00 | 0.94 | 0.94 | 89 | 1035.4 |
| 20260508030716 | 15 | 0 | 0.0 | 0.0 | 0.00 | 0.94 | 0.94 | 92 | 1035.3 |
| 20260508030213 | 15 | 2 | 0.0 | 0.0 | 0.00 | 0.94 | 0.94 | 92 | 1035.1 |
| 20260508025710 | 15 | 2 | 0.0 | 0.0 | 0.00 | 0.94 | 0.94 | 91 | 1035.3 |
| 20260508025207 | 15 | 3 | 0.0 | 0.0 | 0.00 | 0.94 | 0.94 | 91 | 1035.3 |
| 20260508024702 | 15 | 3 | 0.0 | 0.0 | 0.00 | 0.94 | 0.94 | 91 | 1035.1 |
| 20260508024200 | 15 | 3 | 0.0 | 0.0 | 0.00 | 0.94 | 0.94 | 92 | 1035.1 |
| 20260508023656 | 15 | 3 | 0.0 | 0.0 | 0.00 | 0.94 | 0.94 | 92 | 1035.0 |
| 20260508023154 | 15 | 3 | 0.0 | 0.0 | 0.00 | 0.94 | 0.94 | 92 | 1035.0 |
| 20260508022649 | 15 | 2 | 0.0 | 0.0 | 0.00 | 0.94 | 0.94 | 92 | 1034.8 |
| 20260508022147 | 15 | 2 | 0.0 | 0.0 | 0.00 | 0.94 | 0.94 | 92 | 1034.7 |
| 20260508021643 | 15 | 1 | 0.0 | 0.0 | 0.00 | 0.94 | 0.94 | 92 | 1034.7 |
| 20260508021138 | 15 | 1 | 0.0 | 0.0 | 0.00 | 0.94 | 0.94 | 93 | 1035.0 |
| 20260508020636 | 15 | 12 | 0.0 | 0.0 | 0.00 | 0.94 | 0.94 | 93 | 1034.8 |
| 20260508020134 | 15 | 12 | 0.0 | 0.0 | 0.00 | 0.94 | 0.94 | 92 | 1034.6 |
| 20260508015631 | 15 | 12 | 0.0 | 0.0 | 0.00 | 0.94 | 0.94 | 92 | 1034.8 |
| 20260508015128 | 15 | 12 | 0.0 | 0.0 | 0.00 | 0.94 | 0.94 | 92 | 1034.4 |
| 20260508014624 | 15 | 12 | 0.0 | 0.0 | 0.00 | 0.94 | 0.94 | 93 | 1034.4 |
| 20260508014121 | 15 | 12 | 0.0 | 0.0 | 0.00 | 0.94 | 0.94 | 93 | 1034.4 |
| 20260508013617 | 15 | 12 | 0.0 | 0.0 | 0.00 | 0.94 | 0.94 | 92 | 1034.4 |
| 20260508013114 | 16 | 13 | 0.0 | 0.0 | 0.00 | 0.94 | 0.94 | 92 | 1034.4 |
| 20260508012611 | 16 | 13 | 0.0 | 0.0 | 0.00 | 0.94 | 0.94 | 92 | 1034.5 |
| 20260508012108 | 16 | 13 | 0.0 | 0.0 | 0.00 | 0.94 | 0.94 | 91 | 1034.3 |
| 20260508011607 | 16 | 13 | 0.0 | 0.0 | 0.00 | 0.94 | 0.94 | 90 | 1034.2 |
| 20260508011104 | 16 | 13 | 0.0 | 0.0 | 0.00 | 0.94 | 0.94 | 89 | 1034.5 |
| 20260508010600 | 16 | 13 | 0.0 | 0.0 | 0.00 | 0.94 | 0.94 | 88 | 1034.6 |
| 20260508010058 | 16 | 12 | 0.0 | 0.0 | 0.00 | 0.94 | 0.94 | 89 | 1034.4 |
| 20260508005554 | 16 | 13 | 0.0 | 0.0 | 0.00 | 0.94 | 0.94 | 89 | 1034.5 |
| 20260508005051 | 16 | 13 | 0.0 | 0.0 | 0.00 | 0.94 | 0.94 | 89 | 1034.1 |
| 20260508004547 | 17 | 16 | 0.0 | 0.0 | 0.00 | 0.94 | 0.94 | 89 | 1034.2 |
| 20260508004044 | 17 | 16 | 0.0 | 0.0 | 0.00 | 0.94 | 0.94 | 89 | 1034.0 |
| 20260508003540 | 17 | 16 | 0.0 | 0.0 | 0.00 | 0.94 | 0.94 | 89 | 1034.2 |
| 20260508003038 | 17 | 16 | 0.0 | 0.0 | 0.00 | 0.94 | 0.94 | 89 | 1034.0 |
| 20260508002534 | 17 | 16 | 0.0 | 0.0 | 0.00 | 0.94 | 0.94 | 89 | 1034.2 |
| 20260508002031 | 18 | 16 | 0.0 | 0.0 | 0.00 | 0.94 | 0.94 | 88 | 1034.1 |
| 20260508001527 | 18 | 16 | 0.0 | 0.0 | 0.00 | 0.94 | 0.94 | 88 | 1034.0 |
| 20260508001023 | 18 | 16 | 0.0 | 0.0 | 0.00 | 0.94 | 0.94 | 87 | 1034.1 |
| 20260508000519 | 18 | 17 | 0.0 | 0.0 | 0.00 | 0.94 | 0.94 | 86 | 1034.0 |
| 20260508000017 | 18 | 18 | 0.0 | 0.0 | 0.00 | 0.94 | 0.94 | 85 | 1033.9 |
| 20260507235513 | 19 | 17 | 0.0 | 0.0 | 0.00 | 0.94 | 0.94 | 85 | 1033.8 |
| 20260507235011 | 19 | 17 | 0.0 | 0.0 | 0.00 | 0.94 | 0.94 | 84 | 1033.9 |
| 20260507234507 | 19 | 17 | 0.0 | 0.0 | 0.00 | 0.94 | 0.94 | 84 | 1033.5 |
| 20260507234004 | 19 | 17 | 0.0 | 0.0 | 0.00 | 0.94 | 0.94 | 84 | 1033.4 |
| 20260507233500 | 19 | 18 | 0.0 | 0.0 | 0.00 | 0.94 | 0.94 | 86 | 1033.8 |
| 20260507232959 | 20 | 17 | 0.0 | 0.0 | 0.00 | 0.94 | 0.94 | 86 | 1033.6 |
| 20260507232455 | 20 | 18 | 0.0 | 0.0 | 0.00 | 0.94 | 0.94 | 85 | 1033.4 |
| 20260507231953 | 20 | 34 | 0.0 | 0.0 | 0.00 | 0.94 | 0.94 | 82 | 1033.4 |
| 20260507231448 | 20 | 33 | 0.0 | 0.0 | 0.00 | 0.94 | 0.94 | 82 | 1033.4 |
| 20260507230946 | 20 | 22 | 0.0 | 0.0 | 0.00 | 0.94 | 0.94 | 82 | 1033.4 |
| 20260507230443 | 20 | 47 | 0.0 | 0.0 | 0.00 | 0.94 | 0.94 | 80 | 1033.4 |
| 20260507225938 | 20 | 46 | 0.0 | 0.0 | 0.00 | 0.94 | 0.94 | 82 | 1033.3 |
| 20260507225434 | 20 | 46 | 0.0 | 0.0 | 0.00 | 0.94 | 0.94 | 82 | 1033.3 |
| 20260507224931 | 20 | 11 | 0.0 | 0.0 | 0.00 | 0.94 | 0.94 | 83 | 1033.3 |
| 20260507224427 | 20 | 11 | 0.0 | 0.0 | 0.00 | 0.94 | 0.94 | 83 | 1033.5 |
| 20260507223924 | 20 | 10 | 0.0 | 0.0 | 0.00 | 0.94 | 0.94 | 84 | 1033.3 |
| 20260507223414 | 20 | 10 | 0.0 | 0.0 | 0.00 | 0.94 | 0.94 | 84 | 1033.1 |
| 20260507222911 | 20 | 43 | 0.0 | 0.0 | 0.00 | 0.94 | 0.94 | 79 | 1033.2 |